VOI4655 MMMY-KAUS

Flight info

Callsign VOI4655
Flight time 0h 52m
Altitude 38000
Route URTAN1B URTAN UJ11E NLD DCT HFMAN DXEEE3
Aircraft A20N/M-SDE2E3FGHIRWXY/LB1

Departure

Time 2026-05-08 03:06
Airport Monterrey International Airport (MMMY)

Arrival

Time 2026-05-08 03:59
Airport Austin Bergstrom International Airport (KAUS)
Time Latitude Longitude Altitude Speed Heading
2026-05-08 02:38 25.77855 -100.11470 1280 ft 0 kts 31°
2026-05-08 02:53 25.77841 -100.11479 1281 ft 2 kts 31°
2026-05-08 02:54 25.77827 -100.11488 1282 ft 2 kts 31°
2026-05-08 02:54 25.77813 -100.11497 1283 ft 2 kts 34°
2026-05-08 02:54 25.77803 -100.11511 1280 ft 2 kts 93°
2026-05-08 02:54 25.77803 -100.11516 1280 ft 0 kts 111°
2026-05-08 02:56 25.77803 -100.11515 1280 ft 0 kts 111°
2026-05-08 02:56 25.77802 -100.11512 1280 ft 3 kts 117°
2026-05-08 02:56 25.77778 -100.11470 1280 ft 7 kts 122°
2026-05-08 02:56 25.77753 -100.11423 1278 ft 7 kts 121°
2026-05-08 02:57 25.77725 -100.11372 1278 ft 8 kts 121°
2026-05-08 02:57 25.77695 -100.11317 1277 ft 9 kts 121°
2026-05-08 02:57 25.77689 -100.11257 1277 ft 6 kts 62°
2026-05-08 02:57 25.77706 -100.11243 1277 ft 2 kts 32°
2026-05-08 02:58 25.77718 -100.11232 1277 ft 3 kts 44°
2026-05-08 02:58 25.77745 -100.11203 1277 ft 10 kts 41°
2026-05-08 02:58 25.77827 -100.11144 1277 ft 16 kts 31°
2026-05-08 02:58 25.77846 -100.11090 1277 ft 7 kts 113°
2026-05-08 02:59 25.77823 -100.11042 1276 ft 7 kts 122°
2026-05-08 02:59 25.77796 -100.10993 1275 ft 8 kts 121°
2026-05-08 02:59 25.77767 -100.10939 1275 ft 8 kts 121°
2026-05-08 02:59 25.77737 -100.10886 1275 ft 8 kts 122°
2026-05-08 03:00 25.77709 -100.10834 1277 ft 7 kts 121°
2026-05-08 03:00 25.77684 -100.10788 1276 ft 6 kts 121°
2026-05-08 03:00 25.77665 -100.10753 1277 ft 5 kts 121°
2026-05-08 03:00 25.77650 -100.10726 1278 ft 6 kts 122°
2026-05-08 03:01 25.77606 -100.10650 1280 ft 17 kts 122°
2026-05-08 03:01 25.77532 -100.10512 1278 ft 22 kts 123°
2026-05-08 03:01 25.77447 -100.10359 1272 ft 24 kts 122°
2026-05-08 03:01 25.77357 -100.10194 1271 ft 26 kts 121°
2026-05-08 03:02 25.77266 -100.10029 1263 ft 25 kts 121°
2026-05-08 03:02 25.77203 -100.09913 1261 ft 15 kts 121°
2026-05-08 03:02 25.77147 -100.09812 1258 ft 16 kts 122°
2026-05-08 03:02 25.77085 -100.09699 1265 ft 18 kts 120°
2026-05-08 03:03 25.77018 -100.09580 1259 ft 19 kts 122°
2026-05-08 03:03 25.76946 -100.09447 1258 ft 21 kts 121°
2026-05-08 03:03 25.76879 -100.09318 1253 ft 11 kts 108°
2026-05-08 03:03 25.76887 -100.09256 1252 ft 1 kts 24°
2026-05-08 03:04 25.76899 -100.09252 1262 ft 1 kts 23°
2026-05-08 03:04 25.76910 -100.09246 1256 ft 2 kts 28°
2026-05-08 03:04 25.76959 -100.09214 1253 ft 10 kts 32°
2026-05-08 03:04 25.77020 -100.09192 1257 ft 8 kts 336°
2026-05-08 03:05 25.77039 -100.09220 1254 ft 0 kts 298°
2026-05-08 03:05 25.77100 -100.09336 1254 ft 51 kts 300°
2026-05-08 03:05 25.77408 -100.09890 1260 ft 117 kts 301°
2026-05-08 03:05 25.77938 -100.10845 1275 ft 170 kts 302°
2026-05-08 03:06 25.78613 -100.12034 1593 ft 188 kts 303°
2026-05-08 03:06 25.79267 -100.13262 2414 ft 180 kts 300°
2026-05-08 03:06 25.79942 -100.14504 2969 ft 203 kts 302°
2026-05-08 03:06 25.80714 -100.15884 3637 ft 215 kts 302°
2026-05-08 03:07 25.81521 -100.17310 4428 ft 220 kts 302°
2026-05-08 03:07 25.82344 -100.18757 5229 ft 223 kts 302°
2026-05-08 03:07 25.83181 -100.20224 5992 ft 227 kts 302°
2026-05-08 03:07 25.84038 -100.21725 6729 ft 233 kts 302°
2026-05-08 03:08 25.84911 -100.23244 7491 ft 233 kts 304°
2026-05-08 03:08 25.85961 -100.24607 8261 ft 234 kts 320°
2026-05-08 03:08 25.87364 -100.25512 8961 ft 234 kts 344°
2026-05-08 03:08 25.88969 -100.25763 9664 ft 233 kts
2026-05-08 03:09 25.90500 -100.25334 10372 ft 230 kts 25°
2026-05-08 03:09 25.91817 -100.24302 10944 ft 238 kts 45°
2026-05-08 03:09 25.92716 -100.22727 11431 ft 249 kts 69°
2026-05-08 03:09 25.93262 -100.20877 11995 ft 255 kts 69°
2026-05-08 03:10 25.93928 -100.19035 12620 ft 259 kts 68°
2026-05-08 03:10 25.94576 -100.17140 13203 ft 265 kts 71°
2026-05-08 03:10 25.95098 -100.15155 13769 ft 270 kts 77°
2026-05-08 03:10 25.95447 -100.13088 14279 ft 275 kts 84°
2026-05-08 03:11 25.95602 -100.10957 14808 ft 278 kts 91°
2026-05-08 03:11 25.95554 -100.08806 15325 ft 280 kts 98°
2026-05-08 03:11 25.95299 -100.06661 15877 ft 281 kts 105°
2026-05-08 03:11 25.94840 -100.04553 16416 ft 282 kts 112°
2026-05-08 03:12 25.94281 -100.02450 16963 ft 288 kts 106°
2026-05-08 03:12 25.94341 -100.00190 17452 ft 302 kts 75°
2026-05-08 03:12 25.95438 -99.98200 17902 ft 307 kts 40°
2026-05-08 03:12 25.97180 -99.96836 18383 ft 308 kts 26°
2026-05-08 03:13 25.99061 -99.95642 18706 ft 319 kts 25°
2026-05-08 03:13 26.01069 -99.94380 18887 ft 343 kts 26°
2026-05-08 03:13 26.03206 -99.93005 19117 ft 365 kts 27°
2026-05-08 03:13 26.05452 -99.91527 19441 ft 382 kts 28°
2026-05-08 03:14 26.07726 -99.90012 20297 ft 377 kts 28°
2026-05-08 03:14 26.09946 -99.88525 21349 ft 367 kts 28°
2026-05-08 03:14 26.12102 -99.87076 22394 ft 357 kts 28°
2026-05-08 03:14 26.14173 -99.85676 23325 ft 350 kts 28°
2026-05-08 03:15 26.16250 -99.84270 23961 ft 351 kts 28°
2026-05-08 03:15 26.18350 -99.82856 24458 ft 353 kts 29°
2026-05-08 03:15 26.20443 -99.81448 25090 ft 351 kts 28°
2026-05-08 03:15 26.22548 -99.80033 25584 ft 355 kts 28°
2026-05-08 03:16 26.24679 -99.78602 25976 ft 363 kts 28°
2026-05-08 03:16 26.26863 -99.77135 26362 ft 369 kts 28°
2026-05-08 03:16 26.29067 -99.75651 26819 ft 372 kts 28°
2026-05-08 03:16 26.31291 -99.74151 27280 ft 375 kts 28°
2026-05-08 03:17 26.33535 -99.72636 27722 ft 378 kts 28°
2026-05-08 03:17 26.35780 -99.71118 28260 ft 381 kts 28°
2026-05-08 03:17 26.38089 -99.69560 28613 ft 394 kts 28°
2026-05-08 03:17 26.40469 -99.67955 29017 ft 404 kts 28°
2026-05-08 03:18 26.42855 -99.66339 29823 ft 399 kts 28°
2026-05-08 03:18 26.45231 -99.64729 30223 ft 401 kts 28°
2026-05-08 03:18 26.47633 -99.63102 30494 ft 405 kts 28°
2026-05-08 03:18 26.50023 -99.61484 30795 ft 408 kts 27°
2026-05-08 03:19 26.52532 -99.60001 31107 ft 407 kts 17°
2026-05-08 03:19 26.55205 -99.59030 31413 ft 401 kts
2026-05-08 03:19 26.57948 -99.58611 31711 ft 397 kts 357°
2026-05-08 03:19 26.60697 -99.58408 32019 ft 396 kts 354°
2026-05-08 03:20 26.63470 -99.58308 32227 ft 400 kts 353°
2026-05-08 03:20 26.66276 -99.58261 32359 ft 407 kts 352°
2026-05-08 03:20 26.69136 -99.58230 32481 ft 415 kts 352°
2026-05-08 03:20 26.72050 -99.58195 32605 ft 422 kts 353°
2026-05-08 03:21 26.75012 -99.58148 32735 ft 430 kts 353°
2026-05-08 03:21 26.78036 -99.58089 32860 ft 437 kts 353°
2026-05-08 03:21 26.80063 -99.58044 32948 ft 442 kts 353°
2026-05-08 03:21 26.84177 -99.57946 33121 ft 451 kts 354°
2026-05-08 03:22 26.87339 -99.57867 33280 ft 458 kts 353°
2026-05-08 03:22 26.90543 -99.57787 33406 ft 464 kts 353°
2026-05-08 03:22 26.93805 -99.57706 33532 ft 471 kts 353°
2026-05-08 03:23 26.99356 -99.57568 33789 ft 480 kts 354°
2026-05-08 03:23 27.02666 -99.57485 34060 ft 482 kts 354°
2026-05-08 03:23 27.06019 -99.57398 34370 ft 482 kts 354°
2026-05-08 03:23 27.09375 -99.57312 34675 ft 482 kts 353°
2026-05-08 03:24 27.12741 -99.57226 34969 ft 482 kts 353°
2026-05-08 03:24 27.16099 -99.57142 35278 ft 482 kts 353°
2026-05-08 03:24 27.19471 -99.57059 35540 ft 483 kts 353°
2026-05-08 03:24 27.22839 -99.56977 35824 ft 484 kts 353°
2026-05-08 03:25 27.26150 -99.56896 36103 ft 484 kts 353°
2026-05-08 03:25 27.29528 -99.56813 36365 ft 484 kts 353°
2026-05-08 03:25 27.32895 -99.56731 36628 ft 484 kts 353°
2026-05-08 03:25 27.36265 -99.56649 36893 ft 484 kts 353°
2026-05-08 03:26 27.39644 -99.56505 37150 ft 489 kts 358°
2026-05-08 03:26 27.43031 -99.55857 37387 ft 500 kts
2026-05-08 03:26 27.46333 -99.54519 37594 ft 511 kts 21°
2026-05-08 03:26 27.49466 -99.52567 37824 ft 515 kts 27°
2026-05-08 03:27 27.52531 -99.50441 38007 ft 519 kts 28°
2026-05-08 03:27 27.58718 -99.46057 38008 ft 531 kts 28°
2026-05-08 03:28 27.65043 -99.41574 38001 ft 543 kts 28°
2026-05-08 03:28 27.71453 -99.37025 37948 ft 534 kts 28°
2026-05-08 03:28 27.74555 -99.34818 37961 ft 521 kts 28°
2026-05-08 03:29 27.77604 -99.32654 37960 ft 515 kts 27°
2026-05-08 03:29 27.83638 -99.28370 37949 ft 517 kts 27°
2026-05-08 03:30 27.92787 -99.21885 37945 ft 516 kts 25°
2026-05-08 03:31 28.05364 -99.14062 37950 ft 515 kts 23°
2026-05-08 03:32 28.14807 -99.08210 37951 ft 516 kts 23°
2026-05-08 03:32 28.21877 -99.03845 37968 ft 514 kts 22°
2026-05-08 03:33 28.27143 -99.00702 37975 ft 514 kts 22°
2026-05-08 03:33 28.33482 -98.96923 37976 ft 514 kts 22°
2026-05-08 03:34 28.39809 -98.93142 37975 ft 514 kts 21°
2026-05-08 03:34 28.46153 -98.89344 37963 ft 516 kts 21°
2026-05-08 03:35 28.52476 -98.85552 37957 ft 516 kts 22°
2026-05-08 03:35 28.59300 -98.81454 37951 ft 516 kts 22°
2026-05-08 03:36 28.65620 -98.77653 37930 ft 516 kts 22°
2026-05-08 03:36 28.68829 -98.75724 37505 ft 523 kts 21°
2026-05-08 03:36 28.72072 -98.73773 36628 ft 530 kts 22°
2026-05-08 03:36 28.75352 -98.71797 35865 ft 534 kts 22°
2026-05-08 03:37 28.78638 -98.69814 35251 ft 534 kts 22°
2026-05-08 03:37 28.81928 -98.67825 34671 ft 533 kts 22°
2026-05-08 03:37 28.85204 -98.65844 34144 ft 533 kts 22°
2026-05-08 03:37 28.88477 -98.63864 33554 ft 530 kts 22°
2026-05-08 03:38 28.91681 -98.61923 32944 ft 525 kts 22°
2026-05-08 03:38 28.94897 -98.59975 32199 ft 521 kts 22°
2026-05-08 03:38 28.98110 -98.58113 31735 ft 512 kts 17°
2026-05-08 03:38 29.01409 -98.56689 31301 ft 502 kts 12°
2026-05-08 03:39 29.04707 -98.55417 30754 ft 499 kts 12°
2026-05-08 03:39 29.07996 -98.54174 30244 ft 496 kts 12°
2026-05-08 03:39 29.11264 -98.52938 29703 ft 492 kts 12°
2026-05-08 03:39 29.14505 -98.51706 29179 ft 488 kts 11°
2026-05-08 03:40 29.17708 -98.50489 28666 ft 484 kts 12°
2026-05-08 03:40 29.20882 -98.49279 28174 ft 479 kts 12°
2026-05-08 03:40 29.24032 -98.48066 27688 ft 476 kts 13°
2026-05-08 03:40 29.27148 -98.46855 27229 ft 471 kts 12°
2026-05-08 03:41 29.30233 -98.45679 26874 ft 464 kts 12°
2026-05-08 03:41 29.33286 -98.44517 26372 ft 461 kts 12°
2026-05-08 03:41 29.36325 -98.43358 25890 ft 458 kts 12°
2026-05-08 03:41 29.39343 -98.42203 25454 ft 453 kts 12°
2026-05-08 03:42 29.42281 -98.41077 25014 ft 450 kts 12°
2026-05-08 03:42 29.45247 -98.39937 24564 ft 447 kts 12°
2026-05-08 03:42 29.48179 -98.38805 24171 ft 442 kts 12°
2026-05-08 03:42 29.51080 -98.37682 23703 ft 439 kts 12°
2026-05-08 03:43 29.53969 -98.36564 23162 ft 435 kts 12°
2026-05-08 03:43 29.56822 -98.35453 22697 ft 432 kts 13°
2026-05-08 03:43 29.59626 -98.34254 22265 ft 428 kts 14°
2026-05-08 03:43 29.62396 -98.33022 21713 ft 426 kts 15°
2026-05-08 03:44 29.65142 -98.31792 21256 ft 422 kts 15°
2026-05-08 03:44 29.67863 -98.30574 20782 ft 418 kts 15°
2026-05-08 03:44 29.70564 -98.29366 20292 ft 415 kts 15°
2026-05-08 03:44 29.73242 -98.28169 19847 ft 411 kts 15°
2026-05-08 03:45 29.75894 -98.26984 19370 ft 408 kts 15°
2026-05-08 03:45 29.78529 -98.25814 18919 ft 403 kts 14°
2026-05-08 03:45 29.81209 -98.25016 18457 ft 393 kts
2026-05-08 03:45 29.83889 -98.24484 17994 ft 388 kts
2026-05-08 03:46 29.86544 -98.23998 17466 ft 385 kts
2026-05-08 03:46 29.89192 -98.23517 16945 ft 383 kts
2026-05-08 03:46 29.91778 -98.23041 16468 ft 379 kts
2026-05-08 03:46 29.94365 -98.22557 16013 ft 375 kts
2026-05-08 03:47 29.96927 -98.22066 15578 ft 370 kts
2026-05-08 03:47 29.99455 -98.21576 15132 ft 366 kts
2026-05-08 03:47 30.01957 -98.21092 14661 ft 363 kts
2026-05-08 03:47 30.04430 -98.20612 14229 ft 358 kts
2026-05-08 03:48 30.06841 -98.20025 14100 ft 347 kts
2026-05-08 03:48 30.09130 -98.19335 13960 ft 334 kts
2026-05-08 03:48 30.11354 -98.18643 13627 ft 329 kts
2026-05-08 03:48 30.13562 -98.17949 13148 ft 329 kts 11°
2026-05-08 03:49 30.15633 -98.16790 12678 ft 337 kts 36°
2026-05-08 03:49 30.17140 -98.14699 12242 ft 340 kts 57°
2026-05-08 03:49 30.18283 -98.12317 11822 ft 338 kts 61°
2026-05-08 03:49 30.19362 -98.09915 11432 ft 335 kts 62°
2026-05-08 03:50 30.20271 -98.07483 11067 ft 332 kts 72°
2026-05-08 03:50 30.20736 -98.04919 10897 ft 320 kts 88°
2026-05-08 03:50 30.20564 -98.02427 10764 ft 304 kts 108°
2026-05-08 03:50 30.19881 -98.00178 10630 ft 290 kts 116°
2026-05-08 03:51 30.19097 -97.98078 10527 ft 279 kts 118°
2026-05-08 03:51 30.18306 -97.96067 10387 ft 270 kts 118°
2026-05-08 03:51 30.17528 -97.94121 10170 ft 266 kts 118°
2026-05-08 03:51 30.16749 -97.92190 9861 ft 265 kts 118°
2026-05-08 03:52 30.15971 -97.90264 9551 ft 263 kts 118°
2026-05-08 03:52 30.15189 -97.88331 9084 ft 268 kts 118°
2026-05-08 03:52 30.14407 -97.86398 8846 ft 263 kts 118°
2026-05-08 03:52 30.13637 -97.84492 8569 ft 260 kts 118°
2026-05-08 03:53 30.12840 -97.82630 8294 ft 257 kts 121°
2026-05-08 03:53 30.11987 -97.80827 8029 ft 254 kts 122°
2026-05-08 03:53 30.11132 -97.79063 7775 ft 250 kts 122°
2026-05-08 03:53 30.10108 -97.77483 7489 ft 243 kts 143°
2026-05-08 03:54 30.08614 -97.76711 7184 ft 235 kts 173°
2026-05-08 03:54 30.07017 -97.76565 6896 ft 232 kts 179°
2026-05-08 03:54 30.05407 -97.76536 6624 ft 230 kts 180°
2026-05-08 03:54 30.03818 -97.76389 6341 ft 229 kts 166°
2026-05-08 03:55 30.02444 -97.75487 6001 ft 231 kts 133°
2026-05-08 03:55 30.01778 -97.73807 5651 ft 237 kts 97°
2026-05-08 03:55 30.02122 -97.71958 5314 ft 243 kts 60°
2026-05-08 03:55 30.03390 -97.70686 4954 ft 247 kts 21°
2026-05-08 03:56 30.05050 -97.70264 4650 ft 247 kts 12°
2026-05-08 03:56 30.06566 -97.69430 4308 ft 239 kts 47°
2026-05-08 03:56 30.07625 -97.68085 4115 ft 218 kts 38°
2026-05-08 03:56 30.08992 -97.67495 3763 ft 209 kts
2026-05-08 03:57 30.10402 -97.67624 3347 ft 202 kts 355°
2026-05-08 03:57 30.11852 -97.67767 2512 ft 215 kts 360°
2026-05-08 03:57 30.13350 -97.67777 1813 ft 210 kts
2026-05-08 03:57 30.14797 -97.67753 1287 ft 201 kts
2026-05-08 03:58 30.16125 -97.67842 944 ft 183 kts
2026-05-08 03:58 30.17322 -97.67838 686 ft 159 kts
2026-05-08 03:58 30.18344 -97.67859 516 ft 137 kts 359°
2026-05-08 03:58 30.19168 -97.67880 503 ft 97 kts 359°
2026-05-08 03:59 30.19663 -97.67892 507 ft 45 kts 357°
2026-05-08 03:59 30.19829 -97.67896 510 ft 16 kts 357°
2026-05-08 03:59 30.19948 -97.67900 510 ft 22 kts 359°
2026-05-08 03:59 30.20136 -97.67903 516 ft 31 kts 358°
2026-05-08 04:00 30.20292 -97.67908 520 ft 37 kts 359°
2026-05-08 04:00 30.20570 -97.67916 527 ft 42 kts 359°
2026-05-08 04:00 30.20863 -97.67924 529 ft 42 kts 359°
2026-05-08 04:00 30.21102 -97.67930 533 ft 29 kts 359°
2026-05-08 04:01 30.21256 -97.67934 532 ft 8 kts 359°
2026-05-08 04:01 30.21311 -97.67935 532 ft 8 kts 359°
2026-05-08 04:01 30.21340 -97.67923 533 ft 3 kts 65°
2026-05-08 04:01 30.21344 -97.67896 533 ft 4 kts 84°
2026-05-08 04:02 30.21345 -97.67863 533 ft 4 kts 88°
2026-05-08 04:02 30.21347 -97.67826 533 ft 5 kts 88°
2026-05-08 04:02 30.21347 -97.67788 533 ft 5 kts 88°
2026-05-08 04:02 30.21348 -97.67748 533 ft 5 kts 88°
2026-05-08 04:03 30.21349 -97.67708 534 ft 5 kts 89°
2026-05-08 04:03 30.21350 -97.67627 534 ft 5 kts 95°
2026-05-08 04:03 30.21323 -97.67571 534 ft 15 kts 134°
2026-05-08 04:04 30.21213 -97.67525 533 ft 18 kts 166°
2026-05-08 04:04 30.21096 -97.67488 534 ft 17 kts 165°
2026-05-08 04:04 30.20975 -97.67451 533 ft 19 kts 165°
2026-05-08 04:04 30.20841 -97.67409 530 ft 21 kts 164°
2026-05-08 04:05 30.20772 -97.67389 530 ft 21 kts 165°
2026-05-08 04:05 30.20717 -97.67372 529 ft 21 kts 165°
2026-05-08 04:05 30.20657 -97.67356 528 ft 9 kts 173°
2026-05-08 04:05 30.20589 -97.67351 527 ft 11 kts 179°
2026-05-08 04:06 30.20507 -97.67349 525 ft 13 kts 178°
2026-05-08 04:06 30.20410 -97.67346 523 ft 15 kts 179°
2026-05-08 04:06 30.20296 -97.67344 520 ft 18 kts 179°
2026-05-08 04:06 30.20165 -97.67340 517 ft 20 kts 178°
2026-05-08 04:07 30.20017 -97.67336 513 ft 23 kts 178°
2026-05-08 04:07 30.19850 -97.67332 509 ft 25 kts 179°
2026-05-08 04:07 30.19685 -97.67328 508 ft 22 kts 179°
2026-05-08 04:07 30.19568 -97.67325 508 ft 16 kts 178°
2026-05-08 04:08 30.19456 -97.67321 507 ft 16 kts 178°
2026-05-08 04:08 30.19405 -97.67296 507 ft 7 kts 113°
2026-05-08 04:08 30.19403 -97.67238 507 ft 8 kts 89°
2026-05-08 04:08 30.19399 -97.67179 507 ft 7 kts 88°
2026-05-08 04:09 30.19402 -97.67166 507 ft 0 kts 70°